Location: Gebenbach
(49.5378°N, 11.8735°E)
Time: 03:31:29
(UTC+00:00)

Cosmos 2227 Rocket - Pass Details

Date: 29 October 2020
Orbit: 839 x 845 km, 71.0° (Epoch: 27 November)

Event Time Altitude Azimuth Distance (km) Brightness Sun altitude
Rises 16:50:28 0° 331° (NNW) 3,408 5.6 -9.5°
Reaches altitude 10° 16:52:55 10° 333° (NNW) 2,471 4.9 -9.9°
Maximum altitude 16:58:36 80° 60° (ENE) 863 2.2 -10.8°
Drops below altitude 10° 17:04:16 10° 148° (SSE) 2,459 4.4 -11.7°
Sets 17:06:42 0° 150° (SSE) 3,391 5.1 -12.1°
